Weather History for LKPO - January, 2013

Change the Weather History Date:

Tuesday, January 29, 2013

  Actual Average Record
Temperature  
Mean Temperature 30 °F -  
Max Temperature 35 °F - - ()
Min Temperature 26 °F - - ()
Degree Days  
Heating Degree Days 34    
Moisture  
Dew Point 30 °F    
Average Humidity 91    
Maximum Humidity 100    
Minimum Humidity 86    
Precipitation  
Precipitation 0.00 in - - ()
Sea Level Pressure  
Sea Level Pressure 29.99 in    
Wind  
Wind Speed 7 mph ()    
Max Wind Speed 14 mph    
Max Gust Speed -    
Visibility 3.8 miles    
Events Rain , Snow    
T = Trace of Precipitation, MM = Missing Value Source: Averaged Metar Reports

Daily Weather History Graph

Daily Weather History Graph

Search for Another Location

Airport or City:

Trip Planner

Search our weather history database for the weather conditions in past years. The results will help you decide how hot, cold, wet, or windy it might be!

Date:

Astronomy

Jan. 29, 2013 Rise Set
Actual Time 7:26 AM CET 4:41 PM CET
Civil Twilight 6:51 AM CET 5:16 PM CET
Nautical Twilight 6:12 AM CET 5:54 PM CET
Astronomical Twilight 5:35 AM CET 6:32 PM CET
Moon 7:39 PM CET (1/29) 7:56 AM CET (1/29)
Length of Visible Light 10h 24m
Length of Day
9h 15m
Waning Gibbous, 95% of the Moon is Illuminated
Jan 29
Waning Gibbous
Feb 3
Last Quarter
Feb 10
New
Feb 17
First Quarter
Feb 25
Full

Hourly Weather History & Observations

Time (CET) Temp. Windchill Dew Point Humidity Pressure Visibility Wind Dir Wind Speed Gust Speed Precip Events Conditions
12:00 AM 28.4 °F 23.3 °F 26.6 °F 93% 30.12 in 1.6 mi South 4.6 mph - N/A   Overcast
1:00 AM 28.4 °F 21.2 °F 24.8 °F 86% 30.12 in 1.6 mi SSW 6.9 mph - N/A   Overcast
2:00 AM 26.6 °F 19.1 °F 24.8 °F 93% 30.12 in 1.6 mi South 6.9 mph - N/A   Mostly Cloudy
3:00 AM 26.6 °F 20.0 °F 23.0 °F 86% 30.09 in 1.6 mi SSW 5.8 mph - N/A   Mostly Cloudy
4:00 AM 26.6 °F 21.2 °F 24.8 °F 93% 30.09 in 1.6 mi SSE 4.6 mph - N/A   Overcast
5:00 AM 28.4 °F 21.2 °F 24.8 °F 86% 30.06 in 1.6 mi SSE 6.9 mph - N/A   Overcast
6:00 AM 28.4 °F 21.2 °F 26.6 °F 93% 30.06 in 1.7 mi South 6.9 mph - N/A   Mist
7:00 AM 28.4 °F 18.5 °F 26.6 °F 93% 30.04 in 1.7 mi South 11.5 mph - N/A   Mist
8:00 AM 28.4 °F 18.5 °F 26.6 °F 93% 30.01 in 1.7 mi South 11.5 mph - N/A   Mist
8:16 AM 30.2 °F 21.3 °F 26.6 °F 86% 30.01 in - South 10.4 mph - N/A   Mist
9:00 AM 30.2 °F 21.3 °F 28.4 °F 93% 29.98 in 2.2 mi South 10.4 mph - N/A Snow Light Snow
9:25 AM 32.0 °F 24.2 °F 28.4 °F 87% 29.95 in 3.1 mi South 9.2 mph - N/A   Overcast
10:00 AM 33.8 °F 25.8 °F 30.2 °F 87% 29.98 in 3.1 mi South 10.4 mph - N/A Snow Light Snow
10:45 AM 33.8 °F 27.0 °F 30.2 °F 87% 29.98 in 3.7 mi SSE 8.1 mph - N/A Rain Rain
11:00 AM 33.8 °F 26.4 °F 30.2 °F 87% 29.98 in 3.7 mi SSE 9.2 mph - N/A Rain Rain
12:00 PM 33.8 °F 27.0 °F 30.2 °F 87% 29.95 in 3.7 mi South 8.1 mph - N/A Rain , Snow Light Rain
1:00 PM 35.6 °F 29.9 °F 32.0 °F 87% 29.95 in 5.6 mi South 6.9 mph - N/A   Overcast
2:00 PM 35.6 °F 29.2 °F 32.0 °F 87% 29.92 in 6.2 mi South 8.1 mph - N/A   Overcast
3:00 PM 35.6 °F 28.6 °F 32.0 °F 87% 29.92 in 6.2 mi South 9.2 mph - N/A Rain Light Rain
4:00 PM 35.6 °F 29.2 °F 32.0 °F 87% 29.92 in 6.2 mi SSE 8.1 mph - N/A Rain Light Rain
5:00 PM 35.6 °F 29.2 °F 33.8 °F 93% 29.92 in 6.2 mi SSE 8.1 mph - N/A Rain Light Rain
6:00 PM 33.8 °F 24.3 °F 33.8 °F 100% 29.92 in 6.2 mi South 13.8 mph - N/A Rain Light Rain
7:00 PM 33.8 °F 25.3 °F 33.8 °F 100% 29.92 in 5.0 mi South 11.5 mph - N/A Rain Light Rain
8:00 PM 33.8 °F 27.0 °F 33.8 °F 100% 29.92 in 5.0 mi SSW 8.1 mph - N/A Rain Light Rain
9:00 PM 33.8 °F 26.4 °F 33.8 °F 100% 29.92 in 6.2 mi South 9.2 mph - N/A   Overcast
10:00 PM 35.6 °F 31.7 °F 33.8 °F 93% 29.95 in 6.2 mi SSW 4.6 mph - N/A   Overcast
11:00 PM 35.6 °F 32.8 °F 33.8 °F 93% 29.95 in 6.2 mi South 3.5 mph - N/A   Overcast